| time (UTC) | temp C | wind direction | speed KPH | gust KPH | rain 1hr cm | rain 24hr cm | rain mn cm | humidity % | barometer mb |
| 20260510130825 | 24 | 323 | 1.6 | 1.6 | 0.00 | 3.53 | 0.00 | 63 | 1015.7 |
| 20260510130325 | 24 | 317 | 1.6 | 1.6 | 0.00 | 3.63 | 0.00 | 63 | 1015.7 |
| 20260510130058 | 24 | 316 | 1.6 | 1.6 | 0.00 | 4.09 | 0.00 | 63 | 1015.7 |
| 20260510125325 | 24 | 316 | 1.6 | 1.6 | 0.00 | 4.24 | 0.00 | 62 | 1015.5 |
| 20260510125047 | 24 | 316 | 1.6 | 1.6 | 0.00 | 4.32 | 0.00 | 62 | 1015.5 |
| 20260510124325 | 24 | 316 | 1.6 | 1.6 | 0.00 | 4.32 | 0.00 | 62 | 1015.5 |
| 20260510124048 | 24 | 315 | 1.6 | 1.6 | 0.00 | 4.32 | 0.00 | 62 | 1015.5 |
| 20260510123310 | 24 | 316 | 1.6 | 1.6 | 0.00 | 4.32 | 0.00 | 61 | 1015.5 |
| 20260510122811 | 24 | 316 | 1.6 | 1.6 | 0.00 | 4.32 | 0.00 | 63 | 1015.4 |
| 20260510122311 | 24 | 316 | 1.6 | 1.6 | 0.00 | 4.32 | 0.00 | 63 | 1015.4 |
| 20260510122030 | 24 | 316 | 1.6 | 1.6 | 0.00 | 4.32 | 0.00 | 63 | 1015.2 |
| 20260510121310 | 24 | 318 | 0.0 | 1.6 | 0.00 | 4.32 | 0.00 | 64 | 1015.1 |
| 20260510120811 | 24 | 316 | 1.6 | 1.6 | 0.00 | 4.32 | 0.00 | 64 | 1015.0 |
| 20260510120311 | 24 | 316 | 1.6 | 1.6 | 0.00 | 4.32 | 0.00 | 64 | 1015.0 |
| 20260510115810 | 24 | 313 | 1.6 | 1.6 | 0.00 | 4.32 | 0.00 | 64 | 1014.8 |
| 20260510115309 | 24 | 311 | 0.0 | 1.6 | 0.00 | 4.32 | 0.00 | 64 | 1014.7 |
| 20260510114810 | 24 | 311 | 0.0 | 1.6 | 0.00 | 4.32 | 0.00 | 64 | 1014.6 |
| 20260510114310 | 24 | 313 | 0.0 | 1.6 | 0.00 | 4.32 | 0.00 | 64 | 1014.5 |
| 20260510113809 | 24 | 321 | 1.6 | 1.6 | 0.00 | 4.32 | 0.00 | 64 | 1014.4 |
| 20260510113310 | 24 | 307 | 1.6 | 1.6 | 0.00 | 4.32 | 0.00 | 64 | 1014.3 |
| 20260510112810 | 24 | 321 | 1.6 | 1.6 | 0.00 | 4.32 | 0.00 | 64 | 1014.2 |
| 20260510112256 | 24 | 308 | 1.6 | 3.2 | 0.00 | 4.32 | 0.00 | 64 | 1014.1 |
| 20260510111757 | 24 | 306 | 1.6 | 11.3 | 0.00 | 4.32 | 0.00 | 64 | 1014.0 |
| 20260510111257 | 24 | 314 | 1.6 | 11.3 | 0.00 | 4.32 | 0.00 | 64 | 1013.9 |
| 20260510110756 | 24 | 192 | 0.0 | 3.2 | 0.00 | 4.32 | 0.00 | 64 | 1013.9 |
| 20260510110517 | 24 | 313 | 0.0 | 1.6 | 0.00 | 4.32 | 0.00 | 63 | 1013.7 |
| 20260510105757 | 24 | 298 | 1.6 | 1.6 | 0.00 | 4.32 | 0.00 | 64 | 1013.6 |
| 20260510105257 | 24 | 312 | 1.6 | 1.6 | 0.00 | 4.32 | 0.00 | 64 | 1013.5 |
| 20260510104757 | 24 | 318 | 1.6 | 3.2 | 0.00 | 4.32 | 0.00 | 64 | 1013.4 |
| 20260510104257 | 24 | 333 | 1.6 | 3.2 | 0.00 | 4.32 | 0.00 | 63 | 1013.2 |
| 20260510104246 | 24 | 316 | 0.0 | 1.6 | 0.00 | 4.32 | 0.00 | 63 | 1013.1 |
| 20260510103258 | 24 | 315 | 0.0 | 1.6 | 0.00 | 4.32 | 0.00 | 64 | 1013.1 |
| 20260510102757 | 24 | 316 | 0.0 | 1.6 | 0.00 | 4.32 | 0.00 | 63 | 1013.1 |
| 20260510102257 | 24 | 316 | 0.0 | 1.6 | 0.00 | 4.32 | 0.00 | 63 | 1013.1 |
| 20260510101757 | 24 | 316 | 0.0 | 0.0 | 0.00 | 4.32 | 0.00 | 63 | 1013.1 |
| 20260510095502 | 24 | 316 | 0.0 | 1.6 | 0.00 | 4.32 | 0.00 | 63 | 1012.8 |
| 20260510084948 | 24 | 316 | 1.6 | 1.6 | 0.00 | 4.32 | 0.00 | 64 | 1012.8 |
| 20260510084455 | 24 | 316 | 1.6 | 1.6 | 0.00 | 4.32 | 0.00 | 64 | 1012.8 |
| 20260510082446 | 24 | 316 | 0.0 | 1.6 | 0.00 | 4.32 | 0.00 | 64 | 1012.7 |
| 20260510081729 | 24 | 316 | 0.0 | 1.6 | 0.00 | 4.32 | 0.00 | 64 | 1012.8 |
| 20260510080227 | 24 | 316 | 0.0 | 1.6 | 0.00 | 4.32 | 0.00 | 64 | 1012.6 |
| 20260510075727 | 24 | 316 | 0.0 | 1.6 | 0.00 | 4.32 | 0.00 | 64 | 1012.5 |
| 20260510075227 | 24 | 316 | 1.6 | 1.6 | 0.00 | 4.32 | 0.00 | 64 | 1012.5 |
| 20260510074727 | 24 | 316 | 1.6 | 1.6 | 0.00 | 4.32 | 0.00 | 64 | 1012.4 |
| 20260510074228 | 24 | 316 | 0.0 | 1.6 | 0.00 | 4.32 | 0.00 | 64 | 1012.4 |
| 20260510073727 | 24 | 316 | 0.0 | 1.6 | 0.00 | 4.32 | 0.00 | 64 | 1012.3 |
| 20260510073228 | 24 | 316 | 0.0 | 1.6 | 0.00 | 4.32 | 0.00 | 64 | 1012.3 |
| 20260510072728 | 24 | 316 | 0.0 | 1.6 | 0.00 | 4.32 | 0.00 | 64 | 1012.4 |
| 20260510072228 | 24 | 316 | 0.0 | 1.6 | 0.00 | 4.32 | 0.00 | 64 | 1012.4 |
| 20260510071728 | 24 | 316 | 0.0 | 1.6 | 0.00 | 4.32 | 0.00 | 64 | 1012.3 |
| 20260510071228 | 24 | 316 | 0.0 | 1.6 | 0.00 | 4.32 | 0.00 | 64 | 1012.3 |
| 20260510070952 | 24 | 316 | 0.0 | 1.6 | 0.00 | 4.32 | 0.00 | 64 | 1012.3 |
| 20260510070229 | 24 | 316 | 0.0 | 1.6 | 0.00 | 4.32 | 0.00 | 64 | 1012.3 |
| 20260510065716 | 24 | 316 | 0.0 | 1.6 | 0.00 | 4.32 | 0.00 | 64 | 1012.3 |
| 20260510065216 | 24 | 316 | 0.0 | 1.6 | 0.00 | 4.32 | 0.00 | 64 | 1012.3 |
| 20260510064716 | 24 | 316 | 0.0 | 1.6 | 0.00 | 4.32 | 0.00 | 64 | 1012.3 |
| 20260510064216 | 24 | 316 | 0.0 | 1.6 | 0.00 | 4.32 | 0.00 | 64 | 1012.3 |
| 20260510063716 | 24 | 316 | 0.0 | 1.6 | 0.00 | 4.32 | 0.00 | 64 | 1012.2 |
| 20260510063438 | 24 | 316 | 1.6 | 1.6 | 0.00 | 4.32 | 0.00 | 64 | 1012.2 |
| 20260510062941 | 24 | 316 | 0.0 | 1.6 | 0.00 | 4.32 | 0.00 | 64 | 1012.2 |
| 20260510062440 | 24 | 316 | 1.6 | 1.6 | 0.00 | 4.32 | 0.00 | 64 | 1012.3 |
| 20260510061716 | 24 | 316 | 1.6 | 1.6 | 0.00 | 4.32 | 0.00 | 64 | 1012.4 |
| 20260510061216 | 24 | 316 | 1.6 | 1.6 | 0.00 | 4.32 | 0.00 | 64 | 1012.5 |
| 20260510060717 | 24 | 316 | 1.6 | 1.6 | 0.00 | 4.32 | 0.00 | 64 | 1012.6 |
| 20260510060216 | 24 | 316 | 1.6 | 1.6 | 0.00 | 4.32 | 0.00 | 64 | 1012.7 |
| 20260510055717 | 24 | 316 | 1.6 | 1.6 | 0.00 | 4.32 | 0.00 | 63 | 1012.7 |
| 20260510055217 | 24 | 316 | 1.6 | 1.6 | 0.00 | 4.32 | 0.00 | 64 | 1012.7 |
| 20260510054937 | 24 | 316 | 1.6 | 1.6 | 0.00 | 4.32 | 0.00 | 64 | 1012.8 |
| 20260510054202 | 24 | 316 | 0.0 | 1.6 | 0.00 | 4.32 | 0.00 | 64 | 1012.8 |
| 20260510053702 | 24 | 316 | 0.0 | 1.6 | 0.00 | 4.32 | 0.00 | 64 | 1012.7 |
| 20260510053202 | 24 | 316 | 1.6 | 1.6 | 0.00 | 4.32 | 0.00 | 64 | 1012.7 |
| 20260510053151 | 24 | 316 | 1.6 | 1.6 | 0.00 | 4.32 | 0.00 | 63 | 1012.6 |
| 20260510052201 | 24 | 316 | 1.6 | 1.6 | 0.00 | 4.32 | 0.00 | 63 | 1012.4 |
| 20260510051702 | 24 | 316 | 1.6 | 1.6 | 0.00 | 4.32 | 0.00 | 63 | 1012.3 |
| 20260510051202 | 24 | 316 | 1.6 | 1.6 | 0.00 | 4.32 | 0.00 | 63 | 1012.3 |
| 20260510050701 | 24 | 316 | 1.6 | 3.2 | 0.00 | 4.32 | 0.00 | 63 | 1012.3 |
| 20260510050202 | 24 | 316 | 1.6 | 3.2 | 0.00 | 4.32 | 0.00 | 63 | 1012.2 |
| 20260510045702 | 24 | 316 | 1.6 | 3.2 | 0.00 | 4.32 | 4.32 | 63 | 1012.1 |
| 20260510045203 | 24 | 312 | 1.6 | 3.2 | 0.00 | 4.32 | 4.32 | 63 | 1011.8 |
| 20260510044930 | 24 | 323 | 1.6 | 3.2 | 0.00 | 4.32 | 4.32 | 63 | 1011.8 |
| 20260510044202 | 24 | 315 | 1.6 | 3.2 | 0.00 | 4.32 | 4.32 | 63 | 1011.7 |
| 20260510043647 | 24 | 331 | 1.6 | 3.2 | 0.00 | 4.32 | 4.32 | 63 | 1011.6 |
| 20260510043148 | 24 | 314 | 1.6 | 3.2 | 0.00 | 4.32 | 4.32 | 63 | 1011.6 |
| 20260510042913 | 24 | 299 | 1.6 | 3.2 | 0.00 | 4.32 | 4.32 | 63 | 1011.7 |
| 20260510042148 | 24 | 299 | 1.6 | 3.2 | 0.00 | 4.32 | 4.32 | 63 | 1011.8 |
| 20260510041904 | 24 | 324 | 1.6 | 3.2 | 0.00 | 4.32 | 4.32 | 63 | 1011.9 |
| 20260510041148 | 24 | 315 | 1.6 | 3.2 | 0.00 | 4.32 | 4.32 | 63 | 1012.0 |
| 20260510040647 | 24 | 316 | 1.6 | 3.2 | 0.00 | 4.32 | 4.32 | 63 | 1012.1 |
| 20260510040408 | 24 | 316 | 1.6 | 3.2 | 0.00 | 4.32 | 4.32 | 63 | 1012.3 |
| 20260510035648 | 24 | 315 | 1.6 | 3.2 | 0.00 | 4.32 | 4.32 | 63 | 1012.4 |
| 20260510035148 | 24 | 315 | 3.2 | 3.2 | 0.00 | 4.32 | 4.32 | 63 | 1012.5 |
| 20260510034648 | 24 | 305 | 3.2 | 3.2 | 0.00 | 4.32 | 4.32 | 63 | 1012.5 |
| 20260510034148 | 24 | 323 | 1.6 | 3.2 | 0.00 | 4.32 | 4.32 | 62 | 1012.5 |
| 20260510033910 | 24 | 317 | 1.6 | 4.8 | 0.00 | 4.32 | 4.32 | 62 | 1012.5 |
| 20260510033148 | 24 | 313 | 1.6 | 4.8 | 0.00 | 4.32 | 4.32 | 62 | 1012.4 |
| 20260510032853 | 24 | 316 | 1.6 | 1.6 | 0.00 | 4.32 | 4.32 | 62 | 1012.6 |
| 20260510032134 | 24 | 316 | 1.6 | 1.6 | 0.00 | 4.32 | 4.32 | 61 | 1012.8 |
| 20260510031633 | 24 | 316 | 1.6 | 3.2 | 0.00 | 4.32 | 4.32 | 61 | 1012.9 |
| 20260510031134 | 24 | 321 | 1.6 | 3.2 | 0.00 | 4.32 | 4.32 | 61 | 1013.1 |
| 20260510030634 | 24 | 306 | 1.6 | 3.2 | 0.00 | 4.32 | 4.32 | 61 | 1013.4 |
| 20260510030359 | 24 | 331 | 1.6 | 3.2 | 0.00 | 4.32 | 4.32 | 60 | 1013.5 |
| 20260510025634 | 25 | 316 | 1.6 | 1.6 | 0.00 | 4.32 | 4.32 | 60 | 1013.4 |
| 20260510025134 | 25 | 316 | 1.6 | 1.6 | 0.00 | 4.32 | 4.32 | 63 | 1013.4 |
| 20260510024634 | 25 | 315 | 1.6 | 3.2 | 0.00 | 4.32 | 4.32 | 64 | 1013.4 |
| 20260510024134 | 25 | 318 | 1.6 | 3.2 | 0.00 | 4.32 | 4.32 | 64 | 1013.3 |
| 20260510023635 | 25 | 325 | 1.6 | 1.6 | 0.00 | 4.32 | 4.32 | 64 | 1013.4 |
| 20260510023354 | 24 | 316 | 1.6 | 1.6 | 0.00 | 4.32 | 4.32 | 64 | 1013.3 |
| 20260510022635 | 25 | 315 | 1.6 | 3.2 | 0.00 | 4.32 | 4.32 | 64 | 1013.3 |
| 20260510022133 | 25 | 318 | 1.6 | 3.2 | 0.00 | 4.32 | 4.32 | 64 | 1013.2 |
| 20260510021633 | 25 | 313 | 1.6 | 3.2 | 0.00 | 4.32 | 4.32 | 64 | 1013.2 |
| 20260510021132 | 25 | 316 | 1.6 | 1.6 | 0.00 | 4.32 | 4.32 | 64 | 1013.2 |
| 20260510020633 | 25 | 315 | 1.6 | 1.6 | 0.00 | 4.32 | 4.32 | 64 | 1013.0 |
| 20260510020353 | 25 | 316 | 1.6 | 3.2 | 0.00 | 4.32 | 4.32 | 64 | 1013.0 |
| 20260510015633 | 25 | 143 | 1.6 | 3.2 | 0.00 | 4.32 | 4.32 | 64 | 1012.9 |
| 20260510015133 | 25 | 315 | 1.6 | 4.8 | 0.00 | 4.32 | 4.32 | 64 | 1013.0 |
| 20260510014633 | 25 | 315 | 1.6 | 4.8 | 0.00 | 4.32 | 4.32 | 64 | 1012.9 |
| 20260510014133 | 25 | 319 | 1.6 | 1.6 | 0.00 | 4.32 | 4.32 | 64 | 1012.8 |
| 20260510013633 | 25 | 316 | 1.6 | 1.6 | 0.00 | 4.32 | 4.32 | 64 | 1012.9 |
| 20260510013133 | 25 | 316 | 1.6 | 1.6 | 0.00 | 4.32 | 4.32 | 64 | 1012.8 |
| 20260510012633 | 25 | 316 | 1.6 | 1.6 | 0.00 | 4.32 | 4.32 | 64 | 1012.8 |
| 20260510012133 | 25 | 316 | 1.6 | 1.6 | 0.00 | 4.32 | 4.32 | 64 | 1012.8 |
| 20260510011621 | 25 | 316 | 1.6 | 1.6 | 0.00 | 4.32 | 4.32 | 64 | 1012.5 |
| 20260510011120 | 25 | 316 | 1.6 | 3.2 | 0.00 | 4.32 | 4.32 | 64 | 1012.3 |
| 20260510010827 | 25 | 304 | 3.2 | 4.8 | 0.00 | 4.32 | 4.32 | 64 | 1012.3 |
| 20260510010709 | 25 | 316 | 1.6 | 3.2 | 0.00 | 4.32 | 4.32 | 64 | 1012.4 |
| 20260510005621 | 25 | 316 | 3.2 | 4.8 | 0.00 | 4.32 | 4.32 | 64 | 1012.3 |
| 20260510005120 | 24 | 315 | 3.2 | 3.2 | 0.00 | 4.32 | 4.32 | 64 | 1012.2 |
| 20260510004621 | 24 | 313 | 3.2 | 4.8 | 0.00 | 4.32 | 4.32 | 64 | 1012.0 |
| 20260510004121 | 25 | 315 | 3.2 | 4.8 | 0.00 | 4.32 | 4.32 | 64 | 1012.1 |
| 20260510003621 | 24 | 311 | 3.2 | 4.8 | 0.00 | 4.32 | 4.32 | 64 | 1012.1 |
| 20260510003341 | 24 | 18 | 3.2 | 4.8 | 0.00 | 4.32 | 4.32 | 64 | 1012.0 |
| 20260510002621 | 25 | 314 | 3.2 | 3.2 | 0.00 | 4.32 | 4.32 | 64 | 1011.9 |
| 20260510002121 | 24 | 312 | 3.2 | 6.4 | 0.00 | 4.32 | 4.32 | 64 | 1011.7 |
| 20260510001621 | 24 | 316 | 3.2 | 6.4 | 0.00 | 4.32 | 4.32 | 64 | 1011.7 |
| 20260510001121 | 24 | 336 | 3.2 | 6.4 | 0.00 | 4.32 | 4.32 | 64 | 1011.7 |
| 20260510000623 | 25 | 316 | 1.6 | 4.8 | 0.00 | 4.32 | 4.32 | 64 | 1011.8 |
| 20260510000110 | 25 | 316 | 1.6 | 3.2 | 0.00 | 4.32 | 4.32 | 64 | 1011.9 |
| 20260509235609 | 25 | 316 | 1.6 | 3.2 | 0.00 | 4.32 | 4.32 | 64 | 1011.9 |
| 20260509235109 | 25 | 316 | 1.6 | 1.6 | 0.00 | 4.32 | 4.32 | 64 | 1011.8 |
| 20260509234836 | 25 | 315 | 1.6 | 3.2 | 0.00 | 4.32 | 4.32 | 64 | 1011.7 |
| 20260509234327 | 24 | 316 | 1.6 | 1.6 | 0.00 | 4.32 | 4.32 | 64 | 1011.8 |
| 20260509234209 | 25 | 316 | 1.6 | 3.2 | 0.00 | 4.32 | 4.32 | 64 | 1011.8 |
| 20260509233109 | 25 | 316 | 1.6 | 11.3 | 0.00 | 4.32 | 4.32 | 64 | 1011.8 |
| 20260509232604 | 25 | 316 | 14.5 | 57.9 | 0.00 | 4.32 | 4.32 | 64 | 1012.0 |
| 20260509232104 | 24 | 307 | 30.6 | 57.9 | 0.00 | 4.32 | 4.32 | 64 | 1011.8 |
| 20260509231604 | 25 | 99 | 40.2 | 57.9 | 0.00 | 4.32 | 4.32 | 64 | 1011.7 |
| 20260509231331 | 24 | 98 | 43.5 | 57.9 | 0.00 | 4.32 | 4.32 | 63 | 1011.7 |
| 20260509230604 | 24 | 98 | 41.8 | 56.3 | 0.03 | 4.34 | 4.32 | 64 | 1011.7 |
| 20260509230104 | 25 | 100 | 41.8 | 57.9 | 0.03 | 4.47 | 4.32 | 64 | 1011.8 |
| 20260509225604 | 24 | 96 | 46.7 | 57.9 | 0.03 | 4.57 | 4.32 | 63 | 1012.1 |
| 20260509225104 | 24 | 79 | 48.3 | 53.1 | 0.03 | 4.60 | 4.32 | 63 | 1012.2 |
| 20260509224824 | 24 | 79 | 48.3 | 54.7 | 0.03 | 4.70 | 4.32 | 63 | 1012.3 |
| 20260509224059 | 24 | 73 | 45.1 | 54.7 | 0.05 | 4.93 | 4.32 | 63 | 1012.3 |
| 20260509223556 | 24 | 50 | 41.8 | 51.5 | 0.05 | 4.98 | 4.32 | 63 | 1012.4 |
| 20260509223056 | 24 | 8 | 35.4 | 51.5 | 0.05 | 5.08 | 4.32 | 63 | 1012.2 |
| 20260509222555 | 24 | 353 | 17.7 | 49.9 | 0.10 | 5.13 | 4.32 | 63 | 1012.1 |
| 20260509222056 | 24 | 316 | 4.8 | 27.4 | 0.10 | 5.13 | 4.32 | 63 | 1011.8 |
| 20260509221556 | 25 | 316 | 4.8 | 4.8 | 0.13 | 5.13 | 4.32 | 63 | 1011.9 |
| 20260509221056 | 25 | 316 | 4.8 | 30.6 | 0.15 | 5.18 | 4.32 | 63 | 1011.8 |
| 20260509220552 | 24 | 317 | 4.8 | 30.6 | 0.15 | 5.18 | 4.32 | 63 | 1011.6 |
| 20260509220547 | 25 | 317 | 4.8 | 6.4 | 0.15 | 5.18 | 4.32 | 63 | 1011.5 |
| 20260509214554 | 24 | 317 | 3.2 | 4.8 | 0.15 | 5.18 | 4.29 | 63 | 1011.8 |
| 20260509214318 | 25 | 316 | 4.8 | 6.4 | 0.15 | 5.16 | 4.29 | 63 | 1011.7 |
| 20260509213542 | 24 | 317 | 3.2 | 6.4 | 0.15 | 5.16 | 4.29 | 63 | 1011.9 |
| 20260509213042 | 24 | 316 | 3.2 | 6.4 | 0.13 | 5.13 | 4.27 | 63 | 1011.8 |
| 20260509212759 | 24 | 316 | 4.8 | 6.4 | 0.10 | 5.11 | 4.24 | 63 | 1012.0 |
| 20260509212042 | 24 | 316 | 4.8 | 6.4 | 0.08 | 5.08 | 4.22 | 63 | 1012.2 |
| 20260509211542 | 24 | 316 | 4.8 | 6.4 | 0.05 | 5.05 | 4.19 | 63 | 1012.3 |
| 20260509211043 | 24 | 317 | 4.8 | 6.4 | 0.03 | 5.03 | 4.17 | 63 | 1012.4 |
| 20260509210543 | 24 | 317 | 4.8 | 6.4 | 0.03 | 5.03 | 4.14 | 63 | 1012.1 |
| 20260509210042 | 24 | 316 | 3.2 | 6.4 | 0.03 | 5.03 | 4.14 | 63 | 1011.9 |
| 20260509205543 | 24 | 317 | 4.8 | 4.8 | 0.03 | 5.00 | 4.14 | 63 | 1011.9 |
| 20260509205039 | 24 | 317 | 4.8 | 4.8 | 0.03 | 5.00 | 4.14 | 63 | 1011.7 |
| 20260509204539 | 24 | 316 | 3.2 | 4.8 | 0.03 | 5.00 | 4.14 | 63 | 1011.7 |
| 20260509204039 | 24 | 316 | 4.8 | 6.4 | 0.05 | 5.00 | 4.14 | 63 | 1011.6 |
| 20260509203539 | 24 | 317 | 4.8 | 6.4 | 0.08 | 5.00 | 4.14 | 63 | 1011.4 |
| 20260509203037 | 25 | 316 | 4.8 | 6.4 | 0.08 | 5.08 | 4.14 | 63 | 1011.4 |
| 20260509201801 | 24 | 316 | 4.8 | 6.4 | 0.13 | 5.46 | 4.14 | 63 | 1011.3 |
| 20260509201037 | 24 | 317 | 4.8 | 6.4 | 0.13 | 5.46 | 4.11 | 63 | 1011.5 |
| 20260509200538 | 24 | 79 | 3.2 | 6.4 | 0.15 | 5.49 | 4.11 | 63 | 1011.7 |
| 20260509200038 | 24 | 318 | 3.2 | 4.8 | 0.15 | 5.51 | 4.11 | 63 | 1011.8 |
| 20260509195528 | 24 | 63 | 3.2 | 6.4 | 0.18 | 5.69 | 4.11 | 63 | 1012.0 |
| 20260509195250 | 24 | 318 | 4.8 | 8.0 | 0.20 | 5.77 | 4.11 | 63 | 1012.0 |
| 20260509194527 | 24 | 314 | 4.8 | 8.0 | 0.25 | 6.02 | 4.11 | 63 | 1012.1 |
| 20260509194028 | 24 | 316 | 3.2 | 6.4 | 0.30 | 6.27 | 4.09 | 63 | 1012.4 |
| 20260509193527 | 24 | 322 | 3.2 | 4.8 | 0.38 | 6.71 | 4.06 | 63 | 1012.7 |
| 20260509193028 | 24 | 330 | 3.2 | 6.4 | 0.51 | 7.44 | 4.04 | 63 | 1012.8 |
| 20260509192526 | 24 | 328 | 3.2 | 8.0 | 0.53 | 8.05 | 4.04 | 63 | 1013.0 |
| 20260509192017 | 24 | 328 | 4.8 | 8.0 | 0.56 | 8.53 | 4.01 | 63 | 1013.1 |
| 20260509191517 | 24 | 303 | 3.2 | 9.7 | 0.58 | 8.53 | 4.01 | 63 | 1013.0 |
| 20260509191017 | 24 | 318 | 4.8 | 9.7 | 0.61 | 8.51 | 3.99 | 63 | 1012.9 |
| 20260509190510 | 24 | 301 | 6.4 | 9.7 | 0.61 | 8.51 | 3.99 | 63 | 1013.0 |
| 20260509190010 | 24 | 309 | 4.8 | 9.7 | 0.64 | 8.48 | 3.96 | 63 | 1012.9 |
| 20260509185738 | 24 | 319 | 4.8 | 9.7 | 0.66 | 8.46 | 3.96 | 63 | 1012.8 |
| 20260509185010 | 24 | 328 | 6.4 | 9.7 | 0.66 | 8.43 | 3.91 | 63 | 1013.0 |
| 20260509184736 | 24 | 325 | 4.8 | 8.0 | 0.61 | 8.38 | 3.86 | 63 | 1012.9 |
| 20260509184011 | 24 | 329 | 4.8 | 16.1 | 0.53 | 8.31 | 3.78 | 63 | 1012.8 |
| 20260509183510 | 24 | 88 | 6.4 | 17.7 | 0.43 | 8.18 | 3.66 | 63 | 1013.1 |
| 20260509183239 | 24 | 208 | 9.7 | 17.7 | 0.33 | 8.08 | 3.56 | 63 | 1013.6 |
| 20260509182737 | 24 | 160 | 8.0 | 17.7 | 0.28 | 8.03 | 3.51 | 63 | 1013.4 |
| 20260509182011 | 24 | 174 | 6.4 | 17.7 | 0.25 | 7.98 | 3.45 | 63 | 1013.0 |
| 20260509181511 | 24 | 267 | 6.4 | 12.9 | 0.23 | 7.95 | 3.43 | 63 | 1012.7 |
| 20260509181238 | 24 | 51 | 4.8 | 6.4 | 0.20 | 7.90 | 3.38 | 63 | 1013.0 |
| 20260509180511 | 24 | 51 | 4.8 | 8.0 | 0.20 | 7.87 | 3.35 | 63 | 1012.9 |
| 20260509180236 | 24 | 11 | 4.8 | 16.1 | 0.20 | 7.85 | 3.33 | 63 | 1012.3 |
| 20260509175505 | 24 | 46 | 4.8 | 16.1 | 0.15 | 7.80 | 3.30 | 63 | 1012.8 |
| 20260509175005 | 24 | 317 | 6.4 | 16.1 | 0.10 | 7.77 | 3.25 | 63 | 1013.0 |
| 20260509174505 | 24 | 121 | 6.4 | 16.1 | 0.10 | 7.77 | 3.25 | 63 | 1013.1 |
| 20260509174005 | 24 | 318 | 6.4 | 16.1 | 0.13 | 7.77 | 3.25 | 63 | 1013.0 |
| 20260509173506 | 24 | 159 | 6.4 | 12.9 | 0.15 | 7.77 | 3.25 | 63 | 1012.8 |
| 20260509173225 | 24 | 335 | 4.8 | 9.7 | 0.15 | 7.75 | 3.23 | 63 | 1012.7 |
| 20260509172456 | 24 | 51 | 4.8 | 6.4 | 0.15 | 7.75 | 3.23 | 63 | 1013.0 |
| 20260509171957 | 24 | 332 | 4.8 | 6.4 | 0.15 | 7.72 | 3.20 | 63 | 1013.2 |
| 20260509171457 | 24 | 318 | 4.8 | 6.4 | 0.18 | 7.72 | 3.20 | 63 | 1013.2 |
| 20260509170957 | 24 | 307 | 4.8 | 6.4 | 0.20 | 7.72 | 3.20 | 63 | 1012.1 |
| 20260509170457 | 24 | 309 | 4.8 | 6.4 | 0.28 | 7.67 | 3.15 | 63 | 1012.3 |
| 20260509165957 | 24 | 307 | 4.8 | 6.4 | 0.28 | 7.67 | 3.15 | 63 | 1012.8 |
| 20260509165458 | 24 | 315 | 4.8 | 6.4 | 0.51 | 7.67 | 3.15 | 63 | 1012.9 |
| 20260509164957 | 24 | 330 | 4.8 | 6.4 | 0.66 | 7.67 | 3.15 | 63 | 1013.0 |
| 20260509164457 | 24 | 313 | 4.8 | 6.4 | 0.71 | 7.67 | 3.15 | 63 | 1013.1 |
| 20260509163957 | 24 | 320 | 6.4 | 8.0 | 0.76 | 7.65 | 3.12 | 63 | 1013.1 |
| 20260509163448 | 24 | 60 | 6.4 | 8.0 | 0.74 | 7.62 | 3.10 | 63 | 1013.4 |
| 20260509162948 | 24 | 312 | 4.8 | 8.0 | 0.74 | 7.59 | 3.07 | 63 | 1013.2 |
| 20260509162443 | 24 | 324 | 4.8 | 8.0 | 0.74 | 7.59 | 3.07 | 62 | 1013.2 |
| 20260509161940 | 24 | 132 | 4.8 | 8.0 | 0.74 | 7.59 | 3.07 | 62 | 1013.2 |
| 20260509161703 | 24 | 314 | 4.8 | 6.4 | 0.71 | 7.52 | 3.00 | 62 | 1012.7 |
| 20260509160941 | 24 | 312 | 4.8 | 6.4 | 0.89 | 7.49 | 2.97 | 62 | 1012.9 |
| 20260509160922 | 24 | 321 | 4.8 | 6.4 | 1.02 | 7.39 | 2.87 | 63 | 1013.3 |
| 20260509155943 | 24 | 316 | 3.2 | 6.4 | 1.02 | 7.37 | 2.84 | 62 | 1013.4 |
| 20260509155444 | 24 | 318 | 3.2 | 6.4 | 0.76 | 7.06 | 2.54 | 62 | 1012.9 |
| 20260509154944 | 24 | 318 | 3.2 | 6.4 | 0.79 | 6.99 | 2.46 | 62 | 1013.3 |
| 20260509154443 | 24 | 133 | 4.8 | 6.4 | 1.07 | 6.93 | 2.41 | 62 | 1013.4 |
| 20260509153944 | 24 | 328 | 4.8 | 6.4 | 1.09 | 6.88 | 2.36 | 62 | 1013.3 |
| 20260509153444 | 24 | 328 | 4.8 | 6.4 | 1.17 | 6.86 | 2.36 | 62 | 1013.3 |
| 20260509152935 | 24 | 135 | 4.8 | 6.4 | 1.17 | 6.86 | 2.36 | 62 | 1013.2 |
| 20260509152708 | 24 | 154 | 4.8 | 8.0 | 0.76 | 6.38 | 1.85 | 62 | 1013.1 |
| 20260509152704 | 24 | 135 | 4.8 | 6.4 | 1.14 | 6.78 | 2.26 | 62 | 1013.1 |
| 20260509152641 | 24 | 134 | 4.8 | 6.4 | 1.17 | 6.86 | 2.34 | 62 | 1013.0 |
| 20260509152600 | 24 | 130 | 4.8 | 6.4 | 1.14 | 6.83 | 2.31 | 62 | 1012.9 |
| 20260509152339 | 24 | 142 | 4.8 | 6.4 | 0.99 | 6.60 | 2.08 | 62 | 1013.1 |
| 20260509150649 | 24 | 154 | 4.8 | 8.0 | 0.76 | 6.38 | 1.85 | 62 | 1013.1 |
| 20260509145932 | 24 | 130 | 4.8 | 8.0 | 0.76 | 6.35 | 1.83 | 62 | 1013.0 |
| 20260509145432 | 24 | 318 | 4.8 | 8.0 | 0.76 | 6.32 | 1.80 | 62 | 1012.9 |
| 20260509144931 | 24 | 142 | 3.2 | 6.4 | 0.64 | 6.20 | 1.70 | 62 | 1012.9 |
| 20260509144431 | 24 | 24 | 3.2 | 4.8 | 0.30 | 5.87 | 1.37 | 62 | 1013.5 |
| 20260509143932 | 24 | 105 | 4.8 | 6.4 | 0.23 | 5.79 | 1.27 | 62 | 1013.0 |
| 20260509143431 | 24 | 319 | 4.8 | 6.4 | 0.13 | 5.69 | 1.17 | 62 | 1012.9 |
| 20260509142932 | 24 | 321 | 4.8 | 6.4 | 0.13 | 5.69 | 1.17 | 62 | 1013.1 |
| 20260509142432 | 24 | 320 | 4.8 | 6.4 | 0.18 | 5.69 | 1.17 | 62 | 1013.0 |
| 20260509141932 | 24 | 298 | 4.8 | 6.4 | 0.25 | 5.69 | 1.17 | 62 | 1012.9 |
| 20260509141432 | 24 | 322 | 4.8 | 4.8 | 0.25 | 5.64 | 1.12 | 62 | 1012.9 |
| 20260509140932 | 23 | 310 | 4.8 | 6.4 | 0.28 | 5.61 | 1.09 | 62 | 1013.0 |
| 20260509140432 | 23 | 309 | 4.8 | 6.4 | 0.33 | 5.59 | 1.09 | 62 | 1013.2 |
| 20260509135930 | 23 | 307 | 4.8 | 4.8 | 0.58 | 5.59 | 1.07 | 61 | 1012.7 |
| 20260509135429 | 24 | 325 | 4.8 | 6.4 | 0.97 | 5.56 | 1.04 | 61 | 1012.6 |
| 20260509134915 | 24 | 337 | 4.8 | 6.4 | 1.02 | 5.56 | 1.04 | 61 | 1012.3 |
| 20260509134857 | 23 | 334 | 4.8 | 6.4 | 1.04 | 5.56 | 1.04 | 61 | 1012.5 |
| 20260509134137 | 23 | 322 | 4.8 | 6.4 | 1.04 | 5.56 | 1.04 | 61 | 1012.7 |
| 20260509133414 | 23 | 303 | 4.8 | 6.4 | 1.04 | 5.56 | 1.04 | 61 | 1012.8 |
| 20260509132914 | 24 | 318 | 4.8 | 6.4 | 1.04 | 5.56 | 1.04 | 60 | 1012.9 |
| 20260509132415 | 23 | 292 | 4.8 | 6.4 | 0.99 | 5.51 | 0.99 | 60 | 1013.1 |
| 20260509131915 | 24 | 323 | 4.8 | 6.4 | 0.89 | 5.41 | 0.89 | 60 | 1013.3 |
| 20260509131639 | 23 | 316 | 4.8 | 6.4 | 0.86 | 5.38 | 0.86 | 59 | 1013.5 |